Погода в Корюковке

Украина / Черниговская область     51°46′21″N   32°16′23″E
темп.,
°C
ветер,
м/с
пор.,
м/с
влажн.,
%
обл.,
%
осадки,
мм/ч
давл.,
гПа
погр.,
м
4 марта, чт
чт423:00−1з49880 0.0 1020218
02:00−1зюз49870 0.0 1018226
05:00−4юз510930 0.0 1015204
08:00−2юз612940 0.0 1012311
11:00+1юз5109922 0.0 1009385
14:00+2зюз5109953 0.0 1007446
17:00+3зюз41099100 0.0 1006271
20:00+2сз4997100 0.4 1006379
5 марта, пт
пт523:000сз499297 0.1 1007450
02:00−2зсз379578 0.1 1008191
05:00−2сз359643 0.0 1010156
08:00−2с348970 0.0 1011262
11:000с237884 0.0 1013550
14:00+1с336892 0.0 1013929
17:00−1ссз2474100 0.0 1014101
20:00−2ссз2478100 0.0 101697
6 марта, сб
сб623:00−2сз3875100 0.0 1018462
02:00−3ссз4873100 0.0 1019624
05:00−4ссз48677 0.0 1019549
08:00−4сз59585 0.0 1021859
11:00−2сз575694 0.0 10221295
14:00−1сз466097 0.1 10211211
17:00−2сз366360 0.0 1022618
20:00−3зсз356630 0.0 1023201
7 марта, вс
вс723:00−4з37720 0.0 1023270
02:00−4зюз510760 0.0 1022449
05:00−4юз7146634 0.0 1018615
08:00−3зюз9166667 0.0 1016889
11:000зюз111765100 0.0 10121316
14:00+2з101667100 0.0 10101376
17:00+1з81475100 0.0 10091027
20:000з8158097 0.0 1008965
8 марта, пн
пн823:000з9168297 0.0 10061169
02:00−1зсз7137699 0.4 10071176
05:00−3зсз7126898 0.0 10081117
08:00−3зсз7106670 0.0 10101062
11:00−2зсз5760100 0.0 10121121
14:00−1зсз4560100 0.1 10121160
17:00−2зсз3469100 0.1 1012768
20:00−3с2288100 0.3 1014243